Block Island, RI

8:02 AM EDT on May 24, 2017 (GMT -0400)
Block Island State

Weather History for KBID - May, 2013

Change the Weather History Date:

Sunday, May 19, 2013

  Actual Average Record
Temperature  
Mean Temperature 58 °F -  
Max Temperature 62 °F 59 °F 78 °F (1998)
Min Temperature 53 °F 48 °F 40 °F (1992)
Degree Days  
Heating Degree Days 8    
Growing Degree Days 8 (Base 50)    
Moisture  
Dew Point 49 °F    
Average Humidity 77    
Maximum Humidity 94    
Minimum Humidity 59    
Precipitation  
Precipitation 0.13 in - - ()
Sea Level Pressure  
Sea Level Pressure 30.33 in    
Wind  
Wind Speed 8 mph (South)    
Max Wind Speed 16 mph    
Max Gust Speed 20 mph    
Visibility 9 miles    
Events      
Averages and records for this station are not official NWS values.
T = Trace of Precipitation, MM = Missing Value Source: NWS Daily Summary

Daily Weather History Graph

Daily Weather History Graph

Search for Another Location

Airport or City:

Trip Planner

Search our weather history database for the weather conditions in past years. The results will help you decide how hot, cold, wet, or windy it might be!

Date:

Astronomy

May. 19, 2013 Rise Set
Actual Time 5:24 AM EDT 8:01 PM EDT
Civil Twilight 4:52 AM EDT 8:33 PM EDT
Nautical Twilight 4:12 AM EDT 9:13 PM EDT
Astronomical Twilight 3:27 AM EDT 9:58 PM EDT
Moon 1:59 PM EDT (5/19) 1:49 AM EDT (5/19)
Length of Visible Light 15h 41m
Length of Day
14h 37m
Waxing Gibbous, 65% of the Moon is Illuminated
May 19
Waxing Gibbous
May 25
Full
May 31
Last Quarter
Jun 8
New
Jun 16
First Quarter

Hourly Weather History & Observations

Time (EDT) Temp. Dew Point Humidity Pressure Visibility Wind Dir Wind Speed Gust Speed Precip Events Conditions
12:15 AM 53.6 °F 44.6 °F 72% 30.33 in 10.0 mi SW 6.9 mph - N/A   Clear
12:35 AM 53.6 °F 44.6 °F 72% 30.33 in 10.0 mi SW 8.1 mph - N/A   Clear
12:55 AM 55.4 °F 44.6 °F 67% 30.32 in 10.0 mi SW 9.2 mph - N/A   Clear
1:15 AM 53.6 °F 44.6 °F 72% 30.32 in 10.0 mi SW 9.2 mph - N/A   Clear
1:35 AM 53.6 °F 46.4 °F 77% 30.32 in 10.0 mi SW 9.2 mph - N/A   Clear
1:55 AM 53.6 °F 46.4 °F 77% 30.32 in 10.0 mi SSW 9.2 mph - N/A   Clear
2:15 AM 53.6 °F 46.4 °F 77% 30.31 in 10.0 mi SSW 9.2 mph - N/A   Clear
2:35 AM 53.6 °F 46.4 °F 77% 30.32 in 10.0 mi SSW 8.1 mph - N/A   Clear
2:55 AM 53.6 °F 46.4 °F 77% 30.32 in 10.0 mi SSW 8.1 mph - N/A   Clear
3:15 AM 53.6 °F 46.4 °F 77% 30.32 in 10.0 mi SSW 6.9 mph - N/A   Clear
3:35 AM 53.6 °F 46.4 °F 77% 30.32 in 10.0 mi SSW 8.1 mph - N/A   Clear
3:55 AM 55.4 °F 44.6 °F 67% 30.32 in 10.0 mi SW 6.9 mph - N/A   Clear
4:15 AM 53.6 °F 44.6 °F 72% 30.32 in 10.0 mi SSW 8.1 mph - N/A   Clear
4:35 AM 55.4 °F 44.6 °F 67% 30.32 in 10.0 mi SSW 8.1 mph - N/A   Clear
4:55 AM 53.6 °F 44.6 °F 72% 30.33 in 10.0 mi SSW 6.9 mph - N/A   Clear
5:15 AM 53.6 °F 44.6 °F 72% 30.33 in 10.0 mi SSW 6.9 mph - N/A   Clear
5:35 AM 53.6 °F 44.6 °F 72% 30.33 in 10.0 mi SW 6.9 mph - N/A   Partly Cloudy
5:55 AM 53.6 °F 46.4 °F 77% 30.34 in 10.0 mi WSW 5.8 mph - N/A   Mostly Cloudy
6:15 AM 53.6 °F 46.4 °F 77% 30.34 in 10.0 mi West 4.6 mph - N/A   Mostly Cloudy
6:35 AM 55.4 °F 46.4 °F 72% 30.35 in 10.0 mi SW 3.5 mph - N/A   Overcast
6:55 AM 55.4 °F 46.4 °F 72% 30.35 in 10.0 mi SSW 3.5 mph - N/A   Mostly Cloudy
7:15 AM 57.2 °F 48.2 °F 72% 30.36 in 10.0 mi SSE 3.5 mph - N/A   Mostly Cloudy
7:35 AM 57.2 °F 48.2 °F 72% 30.36 in 10.0 mi South 4.6 mph - N/A   Mostly Cloudy
8:15 AM 60.8 °F 48.2 °F 63% 30.36 in 10.0 mi SSW 9.2 mph - N/A   Mostly Cloudy
8:35 AM 60.8 °F 48.2 °F 63% 30.36 in 10.0 mi South 8.1 mph - N/A   Scattered Clouds
8:55 AM 60.8 °F 48.2 °F 63% 30.37 in 10.0 mi South 8.1 mph - N/A   Mostly Cloudy
9:15 AM 60.8 °F 46.4 °F 59% 30.37 in 10.0 mi SSW 8.1 mph - N/A   Overcast
9:35 AM 59.0 °F 48.2 °F 67% 30.37 in 10.0 mi South 9.2 mph - N/A   Overcast
9:55 AM 60.8 °F 48.2 °F 63% 30.38 in 10.0 mi South 8.1 mph - N/A   Overcast
10:15 AM 60.8 °F 48.2 °F 63% 30.38 in 10.0 mi South 8.1 mph - N/A   Overcast
10:55 AM 60.8 °F 50.0 °F 68% 30.38 in 10.0 mi South 9.2 mph - N/A   Mostly Cloudy
11:15 AM 60.8 °F 50.0 °F 68% 30.38 in 10.0 mi South 8.1 mph - N/A   Overcast
11:35 AM 60.8 °F 50.0 °F 68% 30.38 in 10.0 mi South 9.2 mph - N/A   Mostly Cloudy
11:55 AM 62.6 °F 50.0 °F 63% 30.37 in 10.0 mi South 11.5 mph - N/A   Mostly Cloudy
12:15 PM 60.8 °F 48.2 °F 63% 30.38 in 10.0 mi SSW 10.4 mph - N/A   Mostly Cloudy
12:35 PM 60.8 °F 50.0 °F 68% 30.37 in 10.0 mi South 9.2 mph - N/A   Overcast
12:55 PM 60.8 °F 50.0 °F 68% 30.36 in 10.0 mi South 9.2 mph - N/A   Overcast
1:15 PM 59.0 °F 48.2 °F 67% 30.36 in 10.0 mi South 8.1 mph - N/A   Overcast
1:35 PM 59.0 °F 50.0 °F 72% 30.35 in 10.0 mi South 9.2 mph - N/A   Overcast
1:55 PM 60.8 °F 50.0 °F 68% 30.34 in 10.0 mi South 9.2 mph - N/A   Overcast
2:15 PM 60.8 °F 50.0 °F 68% 30.34 in 10.0 mi South 9.2 mph - N/A   Overcast
2:35 PM 59.0 °F 50.0 °F 72% 30.33 in 10.0 mi South 9.2 mph - N/A   Overcast
3:15 PM 57.2 °F 50.0 °F 77% 30.33 in 10.0 mi SSW 6.9 mph - N/A   Overcast
3:35 PM 57.2 °F 50.0 °F 77% 30.33 in 10.0 mi SSW 6.9 mph - N/A   Overcast
3:55 PM 55.4 °F 51.8 °F 88% 30.32 in 9.0 mi SSW 8.1 mph - N/A   Overcast
4:15 PM 55.4 °F 51.8 °F 88% 30.32 in 9.0 mi South 6.9 mph - 0.01 in   Overcast
4:35 PM 55.4 °F 51.8 °F 88% 30.33 in 5.0 mi South 8.1 mph - 0.02 in   Overcast
4:55 PM 55.4 °F 51.8 °F 88% 30.33 in 5.0 mi South 4.6 mph - 0.03 in   Overcast
5:15 PM 55.4 °F 51.8 °F 88% 30.31 in 5.0 mi SSE 8.1 mph - 0.02 in   Overcast
5:35 PM 55.4 °F 51.8 °F 88% 30.31 in 7.0 mi SSE 9.2 mph - 0.03 in   Overcast
5:55 PM 55.4 °F 51.8 °F 88% 30.31 in 6.0 mi SSE 8.1 mph - 0.03 in   Mostly Cloudy
6:15 PM 55.4 °F 51.8 °F 88% 30.30 in 9.0 mi SSE 10.4 mph - 0.01 in   Overcast
6:35 PM 55.4 °F 51.8 °F 88% 30.30 in 10.0 mi SSE 9.2 mph - 0.01 in   Overcast
6:55 PM 55.4 °F 51.8 °F 88% 30.30 in 10.0 mi SSE 9.2 mph - 0.01 in   Overcast
7:15 PM 55.4 °F 51.8 °F 88% 30.30 in 10.0 mi SE 6.9 mph - N/A   Overcast
7:35 PM 55.4 °F 51.8 °F 88% 30.29 in 10.0 mi SE 9.2 mph - 0.01 in   Overcast
7:55 PM 53.6 °F 51.8 °F 94% 30.29 in 8.0 mi SE 10.4 mph - 0.01 in   Overcast
8:15 PM 53.6 °F 51.8 °F 94% 30.29 in 4.0 mi SE 10.4 mph - N/A   Overcast
8:35 PM 53.6 °F 51.8 °F 94% 30.29 in 5.0 mi SE 10.4 mph - 0.02 in   Overcast
8:55 PM 55.4 °F 51.8 °F 88% 30.28 in 7.0 mi SSE 9.2 mph - 0.03 in   Overcast
9:15 PM 55.4 °F 51.8 °F 88% 30.28 in 7.0 mi SSE 11.5 mph - 0.01 in   Overcast
9:35 PM 55.4 °F 51.8 °F 88% 30.27 in 6.0 mi SSE 11.5 mph 16.1 mph 0.01 in   Overcast
9:55 PM 55.4 °F 53.6 °F 94% 30.27 in 7.0 mi SSE 11.5 mph - 0.02 in   Overcast
10:16 PM 55.4 °F 53.6 °F 94% 30.26 in 8.0 mi SSE 11.5 mph - N/A   Overcast
10:35 PM 55.4 °F 53.6 °F 94% 30.26 in 10.0 mi SSE 12.7 mph 19.6 mph N/A   Overcast
10:55 PM 55.4 °F 53.6 °F 94% 30.25 in 9.0 mi SSE 12.7 mph - N/A   Overcast
11:15 PM 55.4 °F 53.6 °F 94% 30.24 in 8.0 mi SSE 16.1 mph 19.6 mph N/A   Overcast
11:35 PM 55.4 °F 53.6 °F 94% 30.24 in 7.0 mi SSE 13.8 mph - N/A   Overcast